Wind_Speed
66 65 63 61 61 61 60 58 57 57 57 57 56 54 53 52 53 54 54 53 52 51 50 47 45 42 38 38 40 40 38 37 34 33 30 28 27 26 25 24 24 23 22
72 70 69 67 66 64 64 63 62 61 60 59 58 56 54 55 55 55 55 55 54 53 52 50 48 45 42 39 41 42 42 41 38 36 34 32 29 27 25 24 23 23 22
79 76 73 72 71 70 68 67 66 65 65 64 61 59 56 55 56 56 56 55 55 55 54 53 51 48 45 43 42 44 45 46 43 40 38 36 33 31 28 26 24 23 22
82 81 79 76 75 74 72 71 70 69 69 68 67 64 61 58 57 58 57 56 56 56 56 55 54 52 49 47 46 45 44 47 49 45 42 39 37 34 32 30 28 26 25
84 84 84 82 79 77 76 74 72 71 71 71 70 69 66 63 61 61 60 58 57 56 57 57 56 55 53 51 50 49 47 45 51 50 47 43 41 38 36 34 32 30 28
86 90 87 85 84 82 80 79 77 74 72 72 72 71 69 67 65 64 63 62 61 59 58 58 59 58 56 54 53 51 50 49 47 51 51 47 45 42 40 38 35 33 32
66 79 92 92 89 87 85 83 82 79 76 74 73 72 71 69 67 67 66 65 64 63 62 61 60 59 58 57 55 54 53 52 49 46 47 49 47 45 43 41 39 37 35
51 58 70 87 94 93 90 88 85 83 81 78 75 74 72 70 69 68 67 67 66 66 65 64 63 62 61 59 58 57 56 55 53 50 46 44 45 45 45 45 43 40 39
47 48 54 67 82 94 96 94 90 87 83 81 79 77 75 74 71 70 68 68 68 68 68 68 67 66 65 64 62 61 60 59 57 53 50 47 45 43 44 45 45 43 41
46 47 47 51 64 78 90 96 96 92 88 84 82 80 78 76 74 73 71 70 68 68 68 69 70 69 68 67 65 64 64 63 61 58 55 53 50 48 45 43 42 43 42
44 44 43 43 48 60 73 86 94 95 92 89 86 85 82 79 77 75 74 72 70 69 69 69 69 70 70 70 68 67 65 65 64 62 60 57 55 52 49 46 43 41 42
41 41 40 39 39 44 53 64 76 86 91 90 88 87 87 85 81 79 76 74 72 71 71 70 70 70 70 70 71 70 68 67 65 63 61 59 57 55 52 49 46 45 44
40 37 37 36 35 36 40 47 54 64 76 84 86 86 87 88 87 84 82 78 75 74 74 73 73 72 71 71 70 70 69 68 66 64 63 61 59 57 55 53 50 49 48
41 36 34 34 33 33 34 38 43 50 58 69 77 82 83 84 86 86 85 83 81 78 76 74 74 74 74 73 72 71 69 68 67 65 64 62 61 60 58 57 55 53 50
42 38 34 33 32 33 33 34 37 41 47 53 62 70 76 79 82 84 86 86 84 82 81 78 76 75 75 75 74 73 72 71 68 66 65 64 62 61 61 61 59 58 55
42 40 38 35 33 33 34 34 34 36 39 42 47 54 61 68 74 79 82 84 85 84 83 81 80 76 75 75 74 74 74 74 73 71 69 68 66 64 64 64 62 61 59
44 41 40 39 36 35 35 35 34 34 36 37 39 42 46 51 58 66 74 79 82 84 83 83 83 80 77 77 75 74 74 74 74 73 73 72 71 69 68 67 66 64 62
43 41 40 41 42 40 38 37 35 34 35 37 39 40 41 43 47 53 61 70 77 81 83 83 85 84 81 79 78 77 75 74 74 74 73 72 71 70 69 67 66 66 64
40 38 38 39 43 45 43 40 38 36 36 38 41 42 42 42 43 46 51 58 67 75 79 81 82 85 83 80 78 78 79 77 75 73 72 71 70 70 71 71 70 70 68
37 34 34 35 40 46 47 45 43 40 39 40 43 44 44 44 44 45 47 50 55 62 69 73 74 79 82 80 77 75 78 80 78 76 74 72 70 70 71 72 73 74 73
34 30 29 31 34 41 47 47 46 44 43 42 43 44 45 46 45 46 48 50 52 55 59 63 64 68 75 76 76 74 74 76 77 77 76 74 70 69 70 71 72 74 74
34 29 25 26 29 35 42 46 47 45 44 43 43 43 43 44 44 43 44 45 48 52 56 60 62 64 68 69 70 71 71 74 75 78 77 76 75 73 72 72 71 72 74
35 30 25 23 25 30 35 41 44 43 43 42 42 41 40 40 39 38 38 39 43 51 54 53 55 57 60 65 67 67 68 70 71 72 73 74 75 75 76 76 75 74 74
36 30 26 22 22 26 31 35 39 40 40 40 40 40 38 36 35 36 38 41 43 50 54 54 56 56 56 56 60 63 64 65 67 68 69 69 69 70 72 73 74 74 74
37 30 25 21 20 23 28 32 36 39 41 42 42 41 39 37 38 41 42 42 45 50 54 56 56 55 55 57 58 59 61 60 62 64 65 65 65 66 67 69 70 71 72
35 28 23 20 19 21 26 31 34 38 42 43 44 44 43 41 41 43 43 42 44 48 53 54 54 53 53 54 56 58 60 59 58 58 58 59 60 61 62 63 65 68 69
Wind_Direction
264 261 260 258 256 253 251 249 248 248 248 247 245 243 242 241 240 239 236 234 235 234 234 235 238 238 235 232 230 232 225 222 221 218 217 216 217 219 221 222 220 219 217
264 261 258 256 254 253 252 250 247 246 247 248 248 246 243 240 238 237 235 232 233 234 234 235 235 235 234 231 231 233 228 221 220 218 217 216 216 217 217 218 218 218 219
264 261 258 255 253 250 250 249 248 246 245 245 246 247 246 244 240 237 235 232 232 233 233 234 234 234 233 232 232 233 233 222 219 219 218 217 217 218 218 219 219 220 221
261 259 257 254 252 250 248 247 247 246 245 245 244 243 243 242 241 238 236 233 232 232 232 233 234 234 234 234 233 234 238 229 218 217 218 218 218 219 221 223 224 226 227
258 256 255 254 252 251 249 248 247 246 245 245 244 244 242 240 239 238 236 234 233 233 233 232 233 234 235 235 235 235 237 236 221 215 216 218 219 222 224 226 228 231 233
257 254 252 251 251 250 249 250 249 247 245 243 243 243 243 241 239 237 236 234 233 233 233 233 232 233 235 235 234 234 235 238 229 220 217 218 221 224 228 230 232 235 237
267 259 253 250 249 248 247 247 248 247 245 243 241 241 241 241 240 238 237 236 234 233 232 233 233 233 234 234 233 232 234 237 238 232 225 223 224 226 229 232 234 237 239
283 271 260 253 248 246 245 245 244 244 243 242 240 238 237 237 238 238 238 237 236 235 233 232 232 233 233 234 233 232 232 235 238 239 237 233 229 229 231 233 235 237 239
294 290 274 258 250 246 244 243 242 241 241 240 239 238 236 234 234 236 237 237 236 236 235 233 231 232 233 234 234 233 233 234 236 238 240 241 240 239 238 235 235 235 235
297 294 289 274 257 248 244 242 241 240 239 238 237 237 237 235 234 234 235 236 236 236 236 235 233 232 232 233 234 235 236 236 237 237 238 239 240 239 240 239 236 233 231
297 295 292 286 271 256 245 240 239 239 238 237 236 236 236 236 235 235 234 234 235 236 236 236 235 233 233 233 233 234 235 237 238 238 238 237 237 236 236 238 238 236 234
295 293 290 286 278 266 254 245 239 238 237 237 236 236 236 236 236 236 235 234 234 234 235 235 236 235 234 235 234 234 235 235 236 237 236 235 235 235 236 237 238 239 238
289 289 286 281 275 267 258 250 243 238 237 237 236 236 237 237 238 238 237 236 236 235 235 235 236 236 236 236 236 236 236 236 235 235 234 233 234 236 237 238 240 241 240
285 282 281 276 269 262 256 250 244 239 237 237 238 238 238 238 239 240 241 241 239 237 235 235 236 236 237 237 237 237 237 236 235 234 233 232 232 235 238 240 241 242 242
285 277 272 270 265 258 252 248 244 240 237 237 238 239 240 240 242 243 243 243 243 241 237 235 235 236 237 237 238 238 238 237 236 235 234 233 233 234 238 240 241 242 243
291 278 267 262 259 254 249 247 244 239 234 232 232 235 237 239 240 242 243 244 244 243 240 237 236 235 237 237 237 238 238 238 237 236 235 235 234 235 237 240 241 241 241
296 285 269 257 252 248 244 244 244 240 234 230 227 227 230 234 237 239 240 241 241 242 242 239 237 235 236 237 237 237 237 237 237 237 237 236 236 237 238 240 241 241 240
297 289 276 260 249 244 241 240 239 239 237 233 230 228 229 232 235 237 238 239 238 238 238 238 238 237 236 236 237 237 237 237 236 236 236 236 237 237 237 238 239 239 239
298 289 280 267 253 244 238 237 236 236 235 233 231 231 232 234 236 236 237 237 237 235 234 234 235 236 236 236 237 238 237 236 235 235 235 236 236 236 236 236 236 237 237
302 293 281 270 258 248 239 235 234 234 234 233 232 232 234 235 237 238 238 239 237 235 232 230 231 234 234 233 232 234 236 236 235 234 234 235 236 236 236 236 237 238 238
310 298 287 272 261 251 243 237 234 233 232 233 233 234 235 237 240 242 242 241 238 233 228 224 223 227 232 230 229 229 231 233 234 233 233 233 234 235 237 237 236 237 238
318 306 295 277 263 254 245 238 234 233 232 231 232 233 236 239 242 245 243 240 234 225 216 214 216 219 225 226 226 227 228 230 231 233 234 234 234 233 233 236 237 237 238
322 312 301 285 268 257 247 239 234 232 231 229 229 230 234 238 241 239 233 224 222 214 208 209 213 214 219 222 223 224 226 228 230 231 232 233 233 233 233 234 236 238 239
323 314 303 289 272 260 250 239 232 227 225 224 223 224 227 231 230 223 215 212 213 210 206 205 204 206 209 214 218 220 223 225 226 226 227 229 230 232 234 235 237 238 239
323 313 304 289 272 260 252 242 229 221 218 218 217 217 218 219 217 212 213 213 210 209 207 206 203 203 206 209 211 213 215 217 221 224 225 228 231 234 236 238 239 240 241
322 310 302 288 270 257 252 244 230 219 216 215 215 214 213 212 212 213 214 214 212 210 209 211 211 210 208 208 210 212 214 216 218 220 222 226 229 232 235 238 240 242 243
Height
5722 5722 5723 5724 5725 5727 5728 5730 5732 5735 5737 5739 5742 5745 5749 5752 5756 5760 5765 5770 5774 5778 5781 5785 5788 5792 5797 5799 5802 5805 5808 5812 5816 5820 5823 5826 5829 5832 5835 5838 5841 5845 5847
5703 5703 5703 5704 5706 5709 5711 5713 5715 5718 5722 5725 5729 5732 5735 5738 5742 5747 5752 5757 5762 5767 5772 5775 5779 5783 5787 5791 5794 5797 5799 5804 5809 5813 5816 5820 5824 5827 5830 5834 5837 5840 5843
5681 5682 5682 5683 5686 5688 5691 5695 5698 5701 5705 5708 5713 5718 5723 5727 5730 5734 5739 5744 5750 5755 5760 5765 5769 5773 5777 5782 5786 5789 5791 5795 5801 5805 5809 5813 5817 5821 5825 5828 5832 5835 5839
5654 5656 5658 5660 5664 5667 5670 5674 5678 5683 5687 5691 5696 5701 5707 5712 5717 5722 5727 5732 5737 5743 5748 5753 5757 5762 5767 5772 5776 5780 5782 5785 5791 5796 5801 5805 5810 5815 5819 5823 5826 5830 5833
5624 5627 5631 5635 5640 5644 5648 5653 5657 5662 5668 5673 5678 5684 5690 5696 5702 5707 5713 5719 5724 5730 5736 5741 5746 5750 5756 5761 5767 5771 5774 5776 5780 5785 5791 5796 5802 5807 5812 5816 5820 5824 5827
5596 5598 5602 5607 5613 5619 5625 5630 5636 5641 5648 5654 5660 5666 5673 5679 5686 5692 5698 5704 5710 5716 5722 5728 5734 5739 5744 5750 5756 5761 5764 5766 5769 5775 5781 5787 5793 5798 5804 5808 5813 5816 5820
5567 5568 5573 5578 5584 5591 5598 5605 5612 5620 5627 5634 5641 5647 5654 5661 5669 5676 5683 5690 5696 5702 5708 5715 5721 5727 5732 5738 5745 5750 5755 5757 5761 5766 5772 5778 5784 5789 5794 5800 5804 5809 5813
5548 5544 5542 5547 5554 5562 5570 5578 5586 5596 5605 5613 5621 5628 5636 5644 5651 5658 5666 5674 5681 5687 5693 5700 5707 5714 5720 5726 5732 5739 5744 5749 5753 5758 5762 5768 5774 5780 5785 5790 5795 5800 5804
5529 5524 5520 5518 5522 5530 5540 5549 5559 5570 5582 5591 5599 5608 5617 5625 5632 5640 5649 5656 5664 5671 5678 5685 5692 5699 5707 5713 5720 5727 5733 5738 5743 5749 5755 5759 5764 5769 5774 5780 5785 5790 5795
5514 5507 5501 5497 5496 5499 5509 5520 5531 5543 5556 5568 5577 5586 5596 5605 5614 5623 5631 5639 5647 5655 5662 5669 5676 5684 5691 5699 5707 5714 5721 5727 5733 5739 5745 5751 5756 5760 5764 5769 5774 5780 5785
5501 5493 5486 5481 5477 5478 5482 5491 5503 5516 5529 5543 5555 5565 5575 5584 5593 5603 5614 5623 5630 5638 5645 5653 5661 5668 5676 5684 5692 5700 5708 5714 5721 5728 5735 5741 5746 5750 5755 5759 5765 5770 5775
5488 5481 5474 5468 5465 5464 5465 5470 5479 5491 5504 5518 5531 5543 5553 5563 5574 5582 5593 5604 5612 5620 5627 5636 5644 5653 5661 5669 5678 5686 5694 5701 5708 5716 5723 5729 5735 5740 5745 5750 5755 5760 5766
5475 5470 5463 5458 5455 5453 5454 5458 5464 5472 5482 5494 5507 5520 5531 5542 5552 5561 5572 5583 5593 5602 5609 5618 5627 5636 5645 5654 5663 5671 5679 5687 5695 5703 5710 5717 5724 5729 5734 5740 5745 5750 5755
5460 5458 5453 5449 5446 5445 5445 5447 5452 5458 5465 5474 5486 5498 5510 5522 5531 5540 5551 5561 5571 5582 5591 5602 5610 5620 5629 5638 5647 5655 5664 5673 5681 5690 5697 5705 5712 5718 5723 5729 5734 5738 5743
5444 5443 5441 5439 5437 5436 5436 5438 5441 5446 5452 5459 5468 5478 5490 5501 5511 5520 5529 5539 5549 5560 5573 5585 5593 5603 5612 5622 5631 5639 5649 5658 5667 5675 5684 5692 5700 5706 5711 5716 5721 5726 5731
5429 5427 5427 5427 5426 5426 5426 5428 5431 5435 5440 5446 5453 5461 5471 5480 5489 5498 5508 5518 5528 5540 5553 5566 5576 5588 5595 5604 5614 5623 5632 5641 5651 5660 5669 5678 5685 5692 5698 5702 5707 5713 5718
5414 5411 5410 5412 5414 5415 5416 5418 5421 5425 5429 5435 5441 5448 5455 5462 5470 5478 5487 5497 5508 5519 5533 5546 5557 5570 5579 5587 5597 5606 5615 5624 5634 5644 5653 5662 5670 5677 5683 5689 5694 5700 5705
5399 5395 5394 5396 5399 5402 5405 5408 5411 5415 5419 5424 5430 5437 5443 5450 5456 5463 5470 5478 5489 5500 5513 5525 5536 5550 5562 5571 5580 5588 5598 5607 5617 5627 5636 5645 5654 5661 5667 5673 5679 5685 5691
5385 5381 5379 5379 5382 5386 5391 5396 5400 5405 5409 5414 5420 5426 5432 5438 5444 5450 5456 5463 5471 5481 5492 5505 5516 5529 5543 5554 5562 5569 5579 5590 5601 5611 5619 5628 5636 5644 5651 5658 5664 5671 5677
5372 5368 5365 5364 5365 5368 5375 5382 5388 5393 5398 5403 5409 5415 5421 5427 5433 5438 5443 5449 5456 5464 5475 5486 5497 5508 5521 5534 5544 5551 5561 5573 5584 5595 5603 5612 5619 5626 5635 5644 5652 5657 5663
5360 5356 5353 5351 5351 5353 5358 5366 5373 5379 5385 5390 5396 5402 5408 5414 5419 5425 5430 5435 5441 5450 5460 5471 5482 5491 5501 5514 5526 5535 5545 5555 5566 5576 5586 5596 5606 5614 5618 5626 5633 5641 5648
5350 5345 5341 5339 5338 5339 5343 5350 5358 5365 5371 5377 5383 5388 5394 5400 5405 5410 5414 5420 5426 5436 5447 5457 5467 5476 5486 5497 5509 5519 5529 5539 5551 5564 5571 5578 5587 5595 5602 5610 5617 5624 5631
5341 5336 5331 5329 5327 5326 5329 5335 5343 5351 5358 5364 5370 5375 5381 5386 5391 5396 5401 5407 5414 5424 5435 5445 5453 5462 5472 5483 5496 5507 5515 5522 5534 5545 5552 5560 5569 5578 5586 5593 5599 5607 5614
5331 5325 5321 5318 5317 5316 5317 5322 5330 5338 5345 5352 5358 5364 5370 5375 5380 5385 5391 5398 5405 5414 5424 5433 5442 5451 5461 5470 5481 5493 5500 5509 5519 5527 5535 5544 5552 5561 5569 5576 5583 5590 5597
5320 5314 5311 5308 5307 5305 5305 5308 5316 5325 5333 5339 5346 5353 5360 5365 5370 5376 5383 5389 5396 5403 5412 5422 5431 5442 5452 5462 5470 5479 5487 5494 5503 5512 5521 5530 5538 5546 5554 5561 5567 5574 5581
5307 5302 5300 5298 5297 5296 5295 5297 5303 5312 5320 5327 5335 5343 5350 5356 5362 5369 5375 5382 5388 5394 5402 5411 5420 5430 5440 5449 5458 5466 5475 5483 5491 5500 5508 5516 5524 5532 5539 5546 5553 5560 5566